CCA4345 ZUCK-ZGSZ

Flight info

Callsign CCA4345
Flight time 1h 33m
Altitude 38100
Route VILUS1Z VILUS W180 BONSA/K0885S1190 W180 LIDMA W182 LAGEX G586 SJG B330 POU W7 SAREX SAREX4
Aircraft B77W/H-SDE1E2E3FGHIJ2J3J4J5M1RWXY/LB1D1

Departure

Time 2026-04-21 14:02
Airport Chongqing Jiangbei International Airport (ZUCK)

Arrival

Time 2026-04-21 15:35
Airport Shenzhen Bao'an International Airport (ZGSZ)
Time Latitude Longitude Altitude Speed Heading
2026-04-21 13:25 29.71116 106.65499 1377 ft 0 kts 282°
2026-04-21 13:38 29.71116 106.65498 1377 ft 0 kts 282°
2026-04-21 13:42 29.71116 106.65499 1377 ft 0 kts 282°
2026-04-21 13:53 29.71114 106.65508 1377 ft 2 kts 282°
2026-04-21 13:53 29.71111 106.65525 1377 ft 2 kts 281°
2026-04-21 13:53 29.71108 106.65542 1377 ft 2 kts 282°
2026-04-21 13:53 29.71102 106.65560 1378 ft 2 kts 307°
2026-04-21 13:54 29.71092 106.65572 1378 ft 2 kts 327°
2026-04-21 13:54 29.71078 106.65579 1377 ft 2 kts 347°
2026-04-21 13:54 29.71063 106.65582 1377 ft 2 kts
2026-04-21 13:54 29.71049 106.65582 1377 ft 2 kts 352°
2026-04-21 13:55 29.71034 106.65585 1377 ft 2 kts 348°
2026-04-21 13:55 29.71028 106.65587 1377 ft 0 kts 348°
2026-04-21 13:57 29.71029 106.65586 1377 ft 1 kts 348°
2026-04-21 13:57 29.71061 106.65578 1377 ft 7 kts 348°
2026-04-21 13:57 29.71121 106.65571 1377 ft 8 kts
2026-04-21 13:58 29.71183 106.65582 1377 ft 9 kts 15°
2026-04-21 13:58 29.71240 106.65607 1377 ft 7 kts 22°
2026-04-21 13:58 29.71288 106.65632 1377 ft 7 kts 29°
2026-04-21 13:58 29.71334 106.65664 1377 ft 7 kts 33°
2026-04-21 13:59 29.71384 106.65701 1377 ft 9 kts 33°
2026-04-21 13:59 29.71447 106.65741 1377 ft 11 kts 28°
2026-04-21 13:59 29.71502 106.65762 1377 ft 4 kts 13°
2026-04-21 13:59 29.71528 106.65778 1377 ft 4 kts 58°
2026-04-21 14:00 29.71525 106.65827 1377 ft 8 kts 104°
2026-04-21 14:00 29.71508 106.65907 1377 ft 11 kts 103°
2026-04-21 14:00 29.71478 106.66009 1377 ft 15 kts 109°
2026-04-21 14:00 29.71447 106.66110 1377 ft 8 kts 108°
2026-04-21 14:01 29.71469 106.66156 1377 ft 7 kts 28°
2026-04-21 14:01 29.71521 106.66176 1377 ft 10 kts 17°
2026-04-21 14:01 29.71669 106.66228 1377 ft 50 kts 16°
2026-04-21 14:01 29.72320 106.66462 1378 ft 142 kts 17°
2026-04-21 14:02 29.73466 106.66855 1741 ft 190 kts 15°
2026-04-21 14:02 29.74661 106.67279 2993 ft 187 kts 16°
2026-04-21 14:02 29.75895 106.67703 4222 ft 192 kts 18°
2026-04-21 14:03 29.78203 106.69096 6013 ft 202 kts 32°
2026-04-21 14:03 29.79447 106.69971 6662 ft 218 kts 32°
2026-04-21 14:03 29.80789 106.70908 7312 ft 236 kts 31°
2026-04-21 14:03 29.82232 106.71915 8029 ft 254 kts 31°
2026-04-21 14:04 29.83807 106.73013 8782 ft 273 kts 30°
2026-04-21 14:04 29.85433 106.74148 9723 ft 281 kts 30°
2026-04-21 14:04 29.87118 106.75324 10636 ft 292 kts 30°
2026-04-21 14:04 29.88795 106.76767 11346 ft 311 kts 42°
2026-04-21 14:05 29.90235 106.78706 12019 ft 331 kts 55°
2026-04-21 14:05 29.91329 106.81141 12650 ft 353 kts 68°
2026-04-21 14:05 29.91903 106.83941 13269 ft 373 kts 83°
2026-04-21 14:05 29.91831 106.86993 13841 ft 393 kts 99°
2026-04-21 14:06 29.90989 106.90017 14567 ft 406 kts 116°
2026-04-21 14:06 29.89365 106.92715 15469 ft 412 kts 134°
2026-04-21 14:06 29.87118 106.94740 16478 ft 413 kts 152°
2026-04-21 14:06 29.84456 106.95983 17377 ft 416 kts 165°
2026-04-21 14:07 29.81662 106.96847 18230 ft 420 kts 168°
2026-04-21 14:07 29.78820 106.97684 19084 ft 425 kts 168°
2026-04-21 14:07 29.75956 106.98466 19849 ft 429 kts 174°
2026-04-21 14:07 29.72975 106.98769 20592 ft 431 kts 184°
2026-04-21 14:08 29.69978 106.98460 21375 ft 431 kts 194°
2026-04-21 14:08 29.67090 106.97556 22156 ft 429 kts 204°
2026-04-21 14:08 29.64384 106.96255 23034 ft 427 kts 207°
2026-04-21 14:08 29.61671 106.94882 23939 ft 426 kts 207°
2026-04-21 14:09 29.58964 106.93510 24718 ft 429 kts 207°
2026-04-21 14:09 29.56231 106.92127 25418 ft 434 kts 207°
2026-04-21 14:09 29.53454 106.90723 26110 ft 438 kts 207°
2026-04-21 14:09 29.50659 106.89312 26849 ft 442 kts 207°
2026-04-21 14:10 29.47826 106.87883 27511 ft 447 kts 207°
2026-04-21 14:10 29.44955 106.86437 28196 ft 452 kts 206°
2026-04-21 14:10 29.42062 106.84980 28859 ft 457 kts 207°
2026-04-21 14:10 29.39149 106.83515 29520 ft 462 kts 207°
2026-04-21 14:11 29.36172 106.82019 30315 ft 465 kts 207°
2026-04-21 14:11 29.33240 106.80547 31303 ft 462 kts 207°
2026-04-21 14:11 29.30315 106.79082 32400 ft 456 kts 207°
2026-04-21 14:11 29.27446 106.77638 33388 ft 451 kts 208°
2026-04-21 14:12 29.24569 106.76195 34185 ft 450 kts 208°
2026-04-21 14:12 29.21679 106.74749 34886 ft 450 kts 209°
2026-04-21 14:12 29.18804 106.73311 35474 ft 452 kts 209°
2026-04-21 14:12 29.15839 106.71828 36105 ft 453 kts 210°
2026-04-21 14:13 29.12873 106.70598 36789 ft 458 kts 202°
2026-04-21 14:13 29.09684 106.69831 37027 ft 465 kts 194°
2026-04-21 14:13 29.06472 106.69608 37026 ft 473 kts 185°
2026-04-21 14:14 28.99921 106.70901 37062 ft 493 kts 166°
2026-04-21 14:14 28.96717 106.72506 37459 ft 503 kts 156°
2026-04-21 14:14 28.93738 106.74618 38007 ft 506 kts 152°
2026-04-21 14:14 28.90806 106.76843 38363 ft 508 kts 152°
2026-04-21 14:15 28.87847 106.79079 38522 ft 512 kts 152°
2026-04-21 14:15 28.84897 106.81293 38796 ft 514 kts 152°
2026-04-21 14:15 28.81894 106.83534 39024 ft 514 kts 153°
2026-04-21 14:16 28.75933 106.87955 39036 ft 509 kts 153°
2026-04-21 14:16 28.69880 106.92200 39032 ft 506 kts 161°
2026-04-21 14:17 28.63297 106.94609 39045 ft 489 kts 178°
2026-04-21 14:17 28.59933 106.94947 39052 ft 478 kts 187°
2026-04-21 14:17 28.56585 106.94965 39060 ft 473 kts 188°
2026-04-21 14:18 28.49987 106.94915 39092 ft 476 kts 188°
2026-04-21 14:18 28.43349 106.94851 39085 ft 476 kts 188°
2026-04-21 14:19 28.36695 106.94780 39086 ft 476 kts 188°
2026-04-21 14:19 28.30043 106.94704 39079 ft 479 kts 188°
2026-04-21 14:20 28.23409 106.94631 39072 ft 473 kts 188°
2026-04-21 14:20 28.16700 106.94964 39066 ft 482 kts 185°
2026-04-21 14:21 28.09979 106.95377 39055 ft 481 kts 185°
2026-04-21 14:21 28.03298 106.95766 39047 ft 482 kts 185°
2026-04-21 14:22 27.96611 106.96130 39053 ft 482 kts 186°
2026-04-21 14:22 27.89892 106.96490 39048 ft 480 kts 186°
2026-04-21 14:23 27.83152 106.96847 39041 ft 480 kts 186°
2026-04-21 14:23 27.76399 106.97201 39052 ft 485 kts 185°
2026-04-21 14:24 27.69681 106.97558 39051 ft 483 kts 185°
2026-04-21 14:24 27.62986 106.97910 39051 ft 482 kts 186°
2026-04-21 14:25 27.56273 106.98261 39044 ft 487 kts 186°
2026-04-21 14:25 27.49519 106.98617 39037 ft 482 kts 186°
2026-04-21 14:26 27.42728 106.98977 39033 ft 486 kts 186°
2026-04-21 14:26 27.35912 106.99345 39038 ft 489 kts 186°
2026-04-21 14:27 27.29093 106.99715 39037 ft 487 kts 186°
2026-04-21 14:27 27.22305 107.00081 39044 ft 491 kts 186°
2026-04-21 14:28 27.15461 107.00450 39044 ft 488 kts 186°
2026-04-21 14:28 27.08674 107.00821 39044 ft 494 kts 184°
2026-04-21 14:29 27.01888 107.02516 39044 ft 505 kts 166°
2026-04-21 14:29 26.98644 107.04253 39047 ft 520 kts 156°
2026-04-21 14:29 26.95582 107.06554 39050 ft 531 kts 147°
2026-04-21 14:30 26.90447 107.12554 39041 ft 541 kts 128°
2026-04-21 14:30 26.87018 107.20007 39034 ft 547 kts 108°
2026-04-21 14:31 26.85327 107.28346 39047 ft 546 kts 100°
2026-04-21 14:31 26.83768 107.36586 39053 ft 545 kts 103°
2026-04-21 14:32 26.81961 107.44890 39045 ft 543 kts 103°
2026-04-21 14:32 26.80053 107.53015 39048 ft 543 kts 105°
2026-04-21 14:33 26.78064 107.61145 39037 ft 541 kts 105°
2026-04-21 14:33 26.76016 107.69277 39026 ft 543 kts 106°
2026-04-21 14:34 26.73957 107.77325 39024 ft 541 kts 106°
2026-04-21 14:34 26.71876 107.85390 39021 ft 538 kts 106°
2026-04-21 14:35 26.69796 107.93401 39022 ft 536 kts 106°
2026-04-21 14:35 26.67706 108.01414 39018 ft 535 kts 106°
2026-04-21 14:36 26.65619 108.09391 39024 ft 537 kts 106°
2026-04-21 14:36 26.63519 108.17387 39020 ft 533 kts 106°
2026-04-21 14:37 26.61432 108.25317 39034 ft 535 kts 107°
2026-04-21 14:37 26.59348 108.33211 39036 ft 533 kts 107°
2026-04-21 14:38 26.57309 108.41226 39018 ft 533 kts 104°
2026-04-21 14:38 26.55488 108.49180 39007 ft 532 kts 104°
2026-04-21 14:39 26.53638 108.57209 39006 ft 534 kts 104°
2026-04-21 14:39 26.51787 108.65190 39006 ft 531 kts 105°
2026-04-21 14:40 26.49924 108.73179 38992 ft 532 kts 105°
2026-04-21 14:40 26.48057 108.81158 38987 ft 532 kts 105°
2026-04-21 14:41 26.46195 108.89084 38990 ft 529 kts 105°
2026-04-21 14:41 26.44100 108.96977 38976 ft 530 kts 114°
2026-04-21 14:42 26.40406 109.03967 38987 ft 525 kts 132°
2026-04-21 14:42 26.35204 109.09566 38978 ft 515 kts 144°
2026-04-21 14:43 26.29633 109.14611 38981 ft 517 kts 145°
2026-04-21 14:43 26.24082 109.19606 38973 ft 513 kts 145°
2026-04-21 14:44 26.18518 109.24599 38981 ft 511 kts 145°
2026-04-21 14:44 26.13008 109.29530 38979 ft 513 kts 145°
2026-04-21 14:45 26.07455 109.34495 38966 ft 511 kts 145°
2026-04-21 14:45 26.01887 109.39463 38982 ft 510 kts 145°
2026-04-21 14:46 25.96360 109.44388 38985 ft 510 kts 145°
2026-04-21 14:46 25.90820 109.49319 38983 ft 510 kts 144°
2026-04-21 14:47 25.85316 109.54212 38981 ft 506 kts 145°
2026-04-21 14:47 25.79761 109.59141 38975 ft 511 kts 144°
2026-04-21 14:48 25.74386 109.64222 38985 ft 508 kts 139°
2026-04-21 14:48 25.69311 109.69698 38970 ft 511 kts 139°
2026-04-21 14:49 25.64219 109.75153 38983 ft 509 kts 139°
2026-04-21 14:49 25.59109 109.80586 38987 ft 508 kts 139°
2026-04-21 14:50 25.54839 109.85109 38988 ft 507 kts 139°
2026-04-21 14:50 25.48895 109.91386 38988 ft 506 kts 139°
2026-04-21 14:51 25.43794 109.96758 38982 ft 506 kts 139°
2026-04-21 14:51 25.38677 110.02140 38970 ft 505 kts 139°
2026-04-21 14:52 25.33584 110.07488 38960 ft 505 kts 139°
2026-04-21 14:52 25.28506 110.12811 38949 ft 503 kts 139°
2026-04-21 14:53 25.23391 110.18167 38951 ft 503 kts 139°
2026-04-21 14:53 25.18335 110.23472 38950 ft 505 kts 138°
2026-04-21 14:54 25.13273 110.28836 38947 ft 502 kts 138°
2026-04-21 14:54 25.08199 110.34206 38950 ft 505 kts 138°
2026-04-21 14:55 25.03168 110.39522 38959 ft 503 kts 138°
2026-04-21 14:55 24.98109 110.44867 38963 ft 503 kts 138°
2026-04-21 14:56 24.93035 110.50234 38972 ft 504 kts 138°
2026-04-21 14:56 24.87988 110.55566 38972 ft 505 kts 138°
2026-04-21 14:57 24.82913 110.60920 38969 ft 504 kts 138°
2026-04-21 14:57 24.77845 110.66260 38946 ft 507 kts 139°
2026-04-21 14:58 24.72755 110.71618 38941 ft 505 kts 139°
2026-04-21 14:58 24.67662 110.76971 38945 ft 506 kts 139°
2026-04-21 14:59 24.62608 110.82376 38961 ft 508 kts 138°
2026-04-21 14:59 24.57597 110.87785 38970 ft 505 kts 138°
2026-04-21 15:00 24.52548 110.93223 38974 ft 506 kts 138°
2026-04-21 15:00 24.47501 110.98650 38976 ft 507 kts 138°
2026-04-21 15:01 24.42442 111.04082 38977 ft 508 kts 138°
2026-04-21 15:01 24.37362 111.09528 38519 ft 513 kts 138°
2026-04-21 15:01 24.34797 111.12275 38013 ft 512 kts 138°
2026-04-21 15:02 24.32243 111.15009 37528 ft 510 kts 138°
2026-04-21 15:02 24.29687 111.17745 37039 ft 508 kts 138°
2026-04-21 15:02 24.27138 111.20470 36547 ft 508 kts 138°
2026-04-21 15:02 24.24594 111.23188 36062 ft 510 kts 138°
2026-04-21 15:03 24.21976 111.25821 35565 ft 509 kts 144°
2026-04-21 15:03 24.19095 111.28003 35076 ft 505 kts 153°
2026-04-21 15:03 24.15994 111.29831 34600 ft 503 kts 156°
2026-04-21 15:03 24.12898 111.31571 34123 ft 504 kts 156°
2026-04-21 15:04 24.09723 111.33347 33636 ft 506 kts 156°
2026-04-21 15:04 24.06594 111.35096 33160 ft 508 kts 156°
2026-04-21 15:04 24.03416 111.36871 32684 ft 510 kts 156°
2026-04-21 15:04 24.00255 111.38635 32259 ft 510 kts 156°
2026-04-21 15:05 23.97058 111.40420 31833 ft 510 kts 156°
2026-04-21 15:05 23.90736 111.43945 30989 ft 510 kts 156°
2026-04-21 15:05 23.87574 111.45705 30572 ft 510 kts 156°
2026-04-21 15:06 23.84394 111.47476 30146 ft 510 kts 156°
2026-04-21 15:06 23.81262 111.49219 29728 ft 509 kts 156°
2026-04-21 15:06 23.78104 111.50976 29311 ft 506 kts 156°
2026-04-21 15:06 23.74996 111.52704 28897 ft 501 kts 157°
2026-04-21 15:07 23.71905 111.54422 28486 ft 495 kts 157°
2026-04-21 15:07 23.68828 111.56130 28076 ft 493 kts 156°
2026-04-21 15:07 23.65761 111.57832 27665 ft 492 kts 156°
2026-04-21 15:07 23.62700 111.59529 27260 ft 489 kts 156°
2026-04-21 15:08 23.59693 111.61195 26860 ft 487 kts 156°
2026-04-21 15:08 23.56687 111.62861 26456 ft 484 kts 156°
2026-04-21 15:08 23.53659 111.64537 26044 ft 481 kts 156°
2026-04-21 15:08 23.50663 111.66195 25632 ft 479 kts 156°
2026-04-21 15:09 23.47728 111.67818 25217 ft 476 kts 156°
2026-04-21 15:09 23.44788 111.69443 24801 ft 474 kts 156°
2026-04-21 15:09 23.41844 111.71071 24386 ft 471 kts 156°
2026-04-21 15:09 23.38910 111.72693 23971 ft 468 kts 156°
2026-04-21 15:10 23.36007 111.74297 23560 ft 467 kts 156°
2026-04-21 15:10 23.33132 111.75885 23157 ft 464 kts 156°
2026-04-21 15:10 23.30266 111.77467 22752 ft 461 kts 156°
2026-04-21 15:10 23.27485 111.79234 22346 ft 461 kts 148°
2026-04-21 15:11 23.24990 111.81400 21935 ft 461 kts 139°
2026-04-21 15:11 23.22809 111.83946 21527 ft 460 kts 130°
2026-04-21 15:11 23.20991 111.86813 21117 ft 458 kts 121°
2026-04-21 15:11 23.19605 111.89871 20713 ft 456 kts 112°
2026-04-21 15:12 23.18630 111.93134 20305 ft 454 kts 104°
2026-04-21 15:12 23.17920 111.96478 19901 ft 450 kts 102°
2026-04-21 15:12 23.17243 111.99777 19506 ft 447 kts 102°
2026-04-21 15:12 23.16569 112.03054 19105 ft 444 kts 102°
2026-04-21 15:13 23.15891 112.06332 18729 ft 440 kts 102°
2026-04-21 15:13 23.15219 112.09568 18628 ft 440 kts 102°
2026-04-21 15:13 23.14551 112.12779 18390 ft 443 kts 102°
2026-04-21 15:13 23.13865 112.16063 17989 ft 436 kts 102°
2026-04-21 15:14 23.13207 112.19207 17597 ft 427 kts 102°
2026-04-21 15:14 23.12550 112.22345 17205 ft 418 kts 103°
2026-04-21 15:14 23.11912 112.25386 16828 ft 411 kts 103°
2026-04-21 15:14 23.11283 112.28381 16446 ft 404 kts 103°
2026-04-21 15:15 23.10664 112.31325 16063 ft 397 kts 103°
2026-04-21 15:15 23.10053 112.34225 15680 ft 391 kts 103°
2026-04-21 15:15 23.09456 112.37053 15299 ft 386 kts 103°
2026-04-21 15:15 23.08861 112.39874 14915 ft 381 kts 104°
2026-04-21 15:16 23.08273 112.42657 14529 ft 378 kts 104°
2026-04-21 15:16 23.07681 112.45452 14132 ft 375 kts 104°
2026-04-21 15:16 23.07132 112.48189 13742 ft 372 kts 101°
2026-04-21 15:16 23.06834 112.50970 13346 ft 369 kts 95°
2026-04-21 15:17 23.06651 112.53734 12951 ft 365 kts 95°
2026-04-21 15:17 23.06473 112.56466 12550 ft 361 kts 95°
2026-04-21 15:17 23.06294 112.59178 12147 ft 358 kts 96°
2026-04-21 15:17 23.06116 112.61848 11750 ft 355 kts 96°
2026-04-21 15:18 23.05940 112.64484 11353 ft 352 kts 96°
2026-04-21 15:18 23.05760 112.67152 10943 ft 349 kts 96°
2026-04-21 15:18 23.05585 112.69743 10718 ft 340 kts 96°
2026-04-21 15:18 23.05418 112.72227 10694 ft 325 kts 96°
2026-04-21 15:19 23.05253 112.74644 10692 ft 319 kts 96°
2026-04-21 15:19 23.05088 112.77058 10693 ft 319 kts 96°
2026-04-21 15:19 23.04923 112.79455 10696 ft 319 kts 97°
2026-04-21 15:19 23.04759 112.81857 10678 ft 319 kts 97°
2026-04-21 15:20 23.04593 112.84267 10352 ft 322 kts 97°
2026-04-21 15:20 23.04427 112.86671 9974 ft 321 kts 97°
2026-04-21 15:20 23.04261 112.89078 9590 ft 320 kts 97°
2026-04-21 15:20 23.04096 112.91474 9201 ft 319 kts 97°
2026-04-21 15:21 23.03930 112.93868 8909 ft 314 kts 97°
2026-04-21 15:21 23.03770 112.96187 8869 ft 305 kts 97°
2026-04-21 15:21 23.03609 112.98495 8868 ft 306 kts 97°
2026-04-21 15:21 23.03447 113.00812 8867 ft 306 kts 97°
2026-04-21 15:22 23.03288 113.03091 8870 ft 306 kts 97°
2026-04-21 15:22 23.03125 113.05411 8866 ft 306 kts 97°
2026-04-21 15:22 23.02963 113.07713 8866 ft 305 kts 97°
2026-04-21 15:22 23.02803 113.10000 8868 ft 305 kts 97°
2026-04-21 15:23 23.02640 113.12302 8848 ft 307 kts 97°
2026-04-21 15:23 23.02477 113.14617 8563 ft 308 kts 97°
2026-04-21 15:23 23.02249 113.16893 8296 ft 302 kts 103°
2026-04-21 15:23 23.01791 113.19113 8026 ft 297 kts 107°
2026-04-21 15:24 23.01310 113.21291 7765 ft 297 kts 107°
2026-04-21 15:24 23.00840 113.23473 7501 ft 296 kts 107°
2026-04-21 15:24 23.00380 113.25632 7237 ft 294 kts 107°
2026-04-21 15:24 22.99929 113.27785 6971 ft 292 kts 107°
2026-04-21 15:25 22.99483 113.29923 6710 ft 289 kts 107°
2026-04-21 15:25 22.99046 113.32041 6446 ft 287 kts 107°
2026-04-21 15:25 22.98612 113.34150 6180 ft 285 kts 107°
2026-04-21 15:25 22.98188 113.36228 5916 ft 283 kts 106°
2026-04-21 15:26 22.97757 113.38329 5647 ft 280 kts 106°
2026-04-21 15:26 22.97336 113.40380 5384 ft 278 kts 107°
2026-04-21 15:26 22.96912 113.42426 5118 ft 276 kts 107°
2026-04-21 15:26 22.96489 113.44454 4852 ft 274 kts 107°
2026-04-21 15:27 22.96064 113.46458 4587 ft 272 kts 106°
2026-04-21 15:27 22.95615 113.48422 4313 ft 268 kts 113°
2026-04-21 15:27 22.94835 113.50236 4052 ft 264 kts 120°
2026-04-21 15:27 22.93988 113.52000 3784 ft 262 kts 120°
2026-04-21 15:28 22.93148 113.53740 3516 ft 260 kts 120°
2026-04-21 15:28 22.92314 113.55465 3251 ft 258 kts 121°
2026-04-21 15:28 22.91482 113.57185 3020 ft 254 kts 120°
2026-04-21 15:28 22.90657 113.58891 2986 ft 255 kts 120°
2026-04-21 15:29 22.89834 113.60589 2982 ft 255 kts 120°
2026-04-21 15:29 22.89008 113.62297 2980 ft 250 kts 120°
2026-04-21 15:29 22.88224 113.63919 2977 ft 236 kts 121°
2026-04-21 15:29 22.87339 113.65335 2968 ft 223 kts 138°
2026-04-21 15:30 22.86155 113.66391 2971 ft 215 kts 147°
2026-04-21 15:30 22.84935 113.67226 2978 ft 202 kts 151°
2026-04-21 15:30 22.83698 113.67957 2977 ft 198 kts 154°
2026-04-21 15:30 22.82476 113.68629 2980 ft 197 kts 155°
2026-04-21 15:31 22.81247 113.69290 2981 ft 198 kts 155°
2026-04-21 15:31 22.80017 113.69953 2968 ft 190 kts 155°
2026-04-21 15:31 22.78859 113.70579 2738 ft 181 kts 155°
2026-04-21 15:31 22.77782 113.71163 2528 ft 166 kts 155°
2026-04-21 15:32 22.76771 113.71714 2333 ft 158 kts 155°
2026-04-21 15:32 22.75818 113.72234 2145 ft 145 kts 155°
2026-04-21 15:32 22.74941 113.72712 1969 ft 140 kts 155°
2026-04-21 15:32 22.74062 113.73193 1791 ft 138 kts 155°
2026-04-21 15:33 22.73201 113.73663 1610 ft 138 kts 154°
2026-04-21 15:33 22.72333 113.74138 1432 ft 141 kts 154°
2026-04-21 15:33 22.71457 113.74612 1234 ft 142 kts 155°
2026-04-21 15:33 22.70562 113.75083 1030 ft 142 kts 155°
2026-04-21 15:34 22.69677 113.75543 856 ft 140 kts 155°
2026-04-21 15:34 22.68809 113.76014 679 ft 139 kts 153°
2026-04-21 15:34 22.67954 113.76505 496 ft 140 kts 152°
2026-04-21 15:34 22.67083 113.77002 281 ft 142 kts 154°
2026-04-21 15:35 22.66204 113.77483 114 ft 140 kts 154°
2026-04-21 15:35 22.65356 113.77940 28 ft 121 kts 154°
2026-04-21 15:35 22.64742 113.78271 28 ft 77 kts 153°
2026-04-21 15:35 22.64400 113.78458 28 ft 30 kts 153°
2026-04-21 15:36 22.64245 113.78554 28 ft 23 kts 142°
2026-04-21 15:36 22.64138 113.78683 28 ft 21 kts 124°
2026-04-21 15:36 22.64102 113.78764 28 ft 10 kts 85°
2026-04-21 15:36 22.64152 113.78801 28 ft 10 kts 353°
2026-04-21 15:37 22.64227 113.78768 28 ft 13 kts 332°
2026-04-21 15:37 22.64317 113.78719 28 ft 15 kts 333°
2026-04-21 15:37 22.64426 113.78659 28 ft 19 kts 334°
2026-04-21 15:37 22.64566 113.78584 28 ft 24 kts 333°
2026-04-21 15:38 22.64730 113.78494 28 ft 27 kts 333°
2026-04-21 15:38 22.64899 113.78400 28 ft 25 kts 333°
2026-04-21 15:38 22.65053 113.78317 28 ft 25 kts 333°
2026-04-21 15:38 22.65212 113.78231 28 ft 26 kts 333°
2026-04-21 15:39 22.65380 113.78139 28 ft 27 kts 333°
2026-04-21 15:39 22.65554 113.78043 28 ft 28 kts 333°
2026-04-21 15:39 22.65731 113.77947 28 ft 27 kts 334°
2026-04-21 15:39 22.65875 113.77864 28 ft 19 kts 331°
2026-04-21 15:40 22.65955 113.77818 28 ft 10 kts 333°
2026-04-21 15:40 22.66026 113.77811 28 ft 11 kts 12°
2026-04-21 15:40 22.66072 113.77821 28 ft 0 kts 12°
2026-04-21 15:40 22.66094 113.77827 28 ft 6 kts 12°
2026-04-21 15:41 22.66154 113.77847 28 ft 11 kts 33°
2026-04-21 15:41 22.66208 113.77931 28 ft 15 kts 65°
2026-04-21 15:41 22.66261 113.78053 28 ft 19 kts 65°
2026-04-21 15:41 22.66320 113.78191 28 ft 13 kts 65°
2026-04-21 15:42 22.66354 113.78273 28 ft 10 kts 81°
2026-04-21 15:42 22.66309 113.78336 28 ft 12 kts 149°
2026-04-21 15:42 22.66217 113.78385 28 ft 16 kts 153°
2026-04-21 15:42 22.66106 113.78446 28 ft 19 kts 153°
2026-04-21 15:43 22.65977 113.78517 28 ft 21 kts 153°
2026-04-21 15:43 22.65833 113.78595 28 ft 24 kts 153°
2026-04-21 15:43 22.65675 113.78683 28 ft 27 kts 152°
2026-04-21 15:43 22.65500 113.78780 28 ft 27 kts 153°
2026-04-21 15:44 22.65330 113.78874 28 ft 27 kts 153°
2026-04-21 15:44 22.65156 113.78970 28 ft 28 kts 153°
2026-04-21 15:44 22.64983 113.79063 28 ft 27 kts 153°
2026-04-21 15:44 22.64813 113.79157 28 ft 26 kts 153°
2026-04-21 15:45 22.64648 113.79247 28 ft 26 kts 153°
2026-04-21 15:45 22.64483 113.79339 28 ft 27 kts 153°
2026-04-21 15:45 22.64311 113.79433 28 ft 27 kts 153°
2026-04-21 15:45 22.64140 113.79527 28 ft 27 kts 153°
2026-04-21 15:46 22.63969 113.79621 28 ft 26 kts 153°
2026-04-21 15:46 22.63805 113.79710 28 ft 26 kts 153°
2026-04-21 15:46 22.63642 113.79797 28 ft 25 kts 154°
2026-04-21 15:46 22.63481 113.79884 28 ft 25 kts 152°
2026-04-21 15:47 22.63329 113.79969 28 ft 23 kts 152°
2026-04-21 15:47 22.63188 113.80048 28 ft 22 kts 153°
2026-04-21 15:47 22.63059 113.80120 28 ft 15 kts 153°
2026-04-21 15:47 22.62990 113.80157 28 ft 8 kts 153°
2026-04-21 15:48 22.62969 113.80206 28 ft 8 kts 82°
2026-04-21 15:48 22.62992 113.80273 28 ft 10 kts 64°
2026-04-21 15:48 22.63028 113.80350 28 ft 12 kts 63°
2026-04-21 15:48 22.63057 113.80416 28 ft 7 kts 74°
2026-04-21 15:49 22.63043 113.80472 28 ft 8 kts 106°
2026-04-21 15:49 22.63047 113.80515 28 ft 6 kts 70°
2026-04-21 15:49 22.63058 113.80542 28 ft 2 kts 64°
2026-04-21 15:49 22.63062 113.80550 28 ft 1 kts 62°
2026-04-21 15:50 22.63063 113.80552 28 ft 0 kts 62°